User: anonymous   Login
Location: Guayaquil
(2.1667°S, 79.9000°W)
Time: 15:48:36
(UTC-05:00)
Language:

NEE 01 PEGASUS - Orbit

View from above orbital plane
View from above orbital plane
View from above satellite
View from above satellite

Ground track
Ground track

The orbit data is extracted from the following two-line orbital elements,

1 39151U 13018B   19291.23408233  .00000151  00000-0  26829-4 0  9997
2 39151  97.9737  26.7903 0017492 164.0388 196.1379 14.80082747349703
Epoch (UTC): 18 October 2019 05:37:04
Eccentricity: 0.0017492
inclination: 97.9737°
perigee height: 617 km
apogee height: 641 km
right ascension of ascending node: 26.7903°
argument of perigee: 164.0388°
revolutions per day: 14.80082747
mean anomaly at epoch: 196.1379°
orbit number at epoch: 34970

The dashed part of the orbit path shows where the satellite is in the earth's shadow,  

DLR